Telluride, CO

12:59 AM MDT on October 17, 2017 (GMT -0600)
Telluride Regional

Weather History for KTEX - September, 2014

Change the Weather History Date:

Monday, September 15, 2014

  Actual Average Record
Temperature  
Mean Temperature 50 °F -  
Max Temperature 51 °F 60 °F 71 °F (2010)
Min Temperature 48 °F 41 °F 32 °F (2004)
Degree Days  
Heating Degree Days 16    
Moisture  
Dew Point 37 °F    
Average Humidity 64    
Maximum Humidity 66    
Minimum Humidity 58    
Precipitation  
Precipitation 0.00 in - - ()
Sea Level Pressure  
Sea Level Pressure 30.45 in    
Wind  
Wind Speed 6 mph (ESE)    
Max Wind Speed 8 mph    
Max Gust Speed -    
Visibility 10 miles    
Events      
Averages and records for this station are not official NWS values.
T = Trace of Precipitation, MM = Missing Value Source: NWS Daily Summary

Daily Weather History Graph

Daily Weather History Graph

Search for Another Location

Airport or City:

Trip Planner

Search our weather history database for the weather conditions in past years. The results will help you decide how hot, cold, wet, or windy it might be!

Date:

Astronomy

Sep. 15, 2014 Rise Set
Actual Time 6:53 AM MDT 7:19 PM MDT
Civil Twilight 6:27 AM MDT 7:45 PM MDT
Nautical Twilight 5:56 AM MDT 8:16 PM MDT
Astronomical Twilight 5:24 AM MDT 8:48 PM MDT
Moon No Moon Rise 1:50 PM MDT (9/15)
Length of Visible Light 13h 18m
Length of Day
12h 25m
Waning Gibbous, 53% of the Moon is Illuminated
Sep 15
Waning Gibbous
Sep 15
Last Quarter
Sep 24
New
Oct 1
First Quarter
Oct 8
Full

Hourly Weather History & Observations

Time (MDT) Temp. Dew Point Humidity Pressure Visibility Wind Dir Wind Speed Gust Speed Precip Events Conditions
12:16 AM 51.8 °F 37.4 °F 58% 30.42 in 10.0 mi ESE 5.8 mph - N/A   Clear
12:38 AM 51.8 °F 37.4 °F 58% 30.43 in 10.0 mi ESE 5.8 mph - N/A   Clear
12:56 AM 51.8 °F 37.4 °F 58% 30.42 in 10.0 mi SE 5.8 mph - N/A   Clear
1:16 AM 50.0 °F 37.4 °F 62% 30.43 in 10.0 mi SE 6.9 mph - N/A   Clear
1:36 AM 50.0 °F 37.4 °F 62% 30.43 in 10.0 mi SE 4.6 mph - N/A   Clear
1:56 AM 50.0 °F 37.4 °F 62% 30.43 in 10.0 mi SE 8.1 mph - N/A   Clear
2:16 AM 48.2 °F 37.4 °F 66% 30.43 in 10.0 mi ESE 6.9 mph - N/A   Clear
2:36 AM 48.2 °F 37.4 °F 66% 30.44 in 10.0 mi ESE 6.9 mph - N/A   Clear
2:56 AM 48.2 °F 37.4 °F 66% 30.43 in 10.0 mi ESE 6.9 mph - N/A   Clear
3:18 AM 48.2 °F 37.4 °F 66% 30.44 in 10.0 mi ESE 6.9 mph - N/A   Clear
3:36 AM 48.2 °F 37.4 °F 66% 30.44 in 10.0 mi SE 6.9 mph - N/A   Clear
3:56 AM 48.2 °F 37.4 °F 66% 30.45 in 10.0 mi SE 4.6 mph - N/A   Scattered Clouds
4:18 AM 48.2 °F 37.4 °F 66% 30.44 in 10.0 mi SE 6.9 mph - N/A   Scattered Clouds
4:36 AM 48.2 °F 37.4 °F 66% 30.44 in 10.0 mi SE 8.1 mph - N/A   Clear
4:56 AM 48.2 °F 37.4 °F 66% 30.45 in 10.0 mi ESE 4.6 mph - N/A   Clear
5:18 AM 48.2 °F 37.4 °F 66% 30.45 in 10.0 mi ESE 5.8 mph - N/A   Mostly Cloudy
5:36 AM 50.0 °F 37.4 °F 62% 30.45 in 10.0 mi SE 5.8 mph - N/A   Scattered Clouds
5:56 AM 48.2 °F 37.4 °F 66% 30.45 in 10.0 mi SE 5.8 mph - N/A   Scattered Clouds
6:18 AM 48.2 °F 37.4 °F 66% 30.46 in 10.0 mi ESE 5.8 mph - N/A   Scattered Clouds
6:36 AM 48.2 °F 37.4 °F 66% 30.47 in 10.0 mi ESE 4.6 mph - N/A   Scattered Clouds
6:56 AM 48.2 °F 37.4 °F 66% 30.47 in 10.0 mi ESE 3.5 mph - N/A   Scattered Clouds
7:16 AM 48.2 °F 37.4 °F 66% 30.47 in 10.0 mi ESE 6.9 mph - N/A   Clear
7:36 AM 48.2 °F 37.4 °F 66% 30.48 in 10.0 mi SE 5.8 mph - N/A   Clear
7:58 AM 50.0 °F 37.4 °F 62% 30.49 in 10.0 mi Calm Calm - N/A   Clear